STARLINK-32113, 60282

Orbit data source: Space-Track

STARLINK-32113, 60282 is a payload satellite in LEO that was launched on Sun, 28 Jul 2024 UTC via an FALCON 9 launch vehicle from the Air Force Eastern Test Range (AFETR). Payload-class satellites include a variety of spacecraft equipped with specific instruments for various scientific and technological missions. These include communications satellites like Starlink; space stations such as the ISS; scientific satellites like the Hubble; Earth observation satellites from companies like Planet Labs, Umbra, and HawkEye 360; GPS; miniature CubeSats for education and research; and military/defense satellites.

Loading next visibility...
Identifier
60282, 2024-132E
Orbit
LEO
Last TLE update
20 hours ago
Origin
Manufacturer
SpaceX/Seattle
Mission
Operational spacecraft
Bus & Motor
STARLINK V2M, Unknown motor
Mass
730 kg wet, ~700 kg dry
Launch date (UTC)
2024-07-28 (10 months ago)
Launch vehicle
FALCON 9
Launch site
Air Force Eastern Test Range (AFETR)
Object type
Payload
Rocket body
Debris
Shape & HBR
Unknown
Radar Cross Section
Large (>1 m²)

Expand to show TLE details & history

TLE from 20 hours ago
0 STARLINK-32113
1 60282U 24132E   25139.84846946 -.00000744  00000-0 -13021-4 0  9997
2 60282  53.1606 337.1765 0001079  87.1010 273.0114 15.30184746 46576
Epoch: 2025-05-19T20:21Z
TLE epoch observation values (Epoch: 2025-05-19T20:21:47.761Z)
Latitude
-0.00003°
Longitude
153.97227°
Altitude
476.122 km
Speed
7.629 km/s
True Right ascension
22h 28m 42s
True Declination
0° 00' 00"
Sunlit
Object was in daylight at epoch
Visualization orbit readout
Latitude
-5.65745°
Longitude
145.8007°
Altitude
477.156 km
Speed
7.628 km/s
Apparent Right ascension
18h 56m 05s
Apparent Declination
-39° 49' 53"
Sunlit
Object is in daylight
Visualization observer readout
Local Sidereal Time
01:36:32
Azimuth
241.837° WSW
Elevation
-30.961°
Doppler factor
1
Orbital elements
Apogee altitude
476.256 km
Perigee altitude
474.777 km
Semi-major axis
6,853.654 km
Eccentricity
0.00011
Inclination
53.1606°
RAAN
337.1765°
Arg. of periapsis
87.101°
True anomaly
Unknown
Mean anomaly
273.0114°
Eccentric anomaly
Unknown
Mean motion
3.82525 °/min
Orbital period
94.11 mins
BSTAR
-0.000013021
Loading maneuver chart data...
Loading SW <> Apogee altitude chart data...
Loading historical data...
Loading historical data...
Loading historical data...
Loading historical data...
Loading historical data...
Loading historical data...
Loading historical data...

STARLINK-32113 Visibility forecast

Observer location: undefined°, undefined°

Span
Click to sort rows by Start time (UTC) header in descending order
Start Az.
Max El. time (UTC)
Max El. Az.
Max El.
End time (UTC)
End Az.
5 mins2025-05-20 16:58:39.388Z278.207° WNW2025-05-20 17:01:39.388Z345.734° N23.51°2025-05-20 17:03:39.388Z24.46° NE
5 mins2025-05-20 21:55:39.388Z329.829° NNW2025-05-20 21:57:39.388Z14.114° NNE31.57°2025-05-20 22:00:39.388Z98.172° ESE
4 mins2025-05-20 23:34:39.388Z259.649° W2025-05-20 23:35:39.388Z234.907° WSW22.426°2025-05-20 23:38:39.388Z175.871° S
5 mins2025-05-21 14:51:39.388Z189.459° SSW2025-05-21 14:53:39.388Z135.135° SSE30.866°2025-05-21 14:56:39.388Z68.061° E
5 mins2025-05-21 16:29:39.388Z280.75° WNW2025-05-21 16:31:39.388Z330.385° NNW26.23°2025-05-21 16:34:39.388Z30.913° NE
|